User: anonymous   Login
Location: Unspecified
(0.0000°N, 0.0000°E)
Time: 00:53:59
(UTC+00:00)
Language:

STARLINK-34891 - Orbit

View from above orbital plane
View from above orbital plane
View from above satellite
View from above satellite

Ground track
Ground track

The orbit is defined by the following mean orbital elements,

1 65373U          26145.33452565 +.00000000 +00000-0 +58669-3 0 00005
2 65373  53.1593 171.8957 0000896  49.0780 311.0301 15.34399006    00
Epoch (UTC): 25 May 2026 08:01:43
Eccentricity: 0.0000896
inclination: 53.1593°
perigee height: 462 km
apogee height: 463 km
right ascension of ascending node: 171.8957°
argument of perigee: 49.0780°
revolutions per day: 15.34399006
mean anomaly at epoch: 311.0301°

The dashed part of the orbit path shows where the satellite is in the earth's shadow,  

DLR